Torna al catalogo

FENGYUN 1C DEB

AttivoPO
NORAD 37444·DEBRIS·🇨🇳 China

Lanciato May 10, 1999 da Taiyuan Satellite Launch Center

Loading…

Prossimi Passaggi (prossime 24 ore)

TLE

AggiornatoSource: Space-Track

Epoca: Sep 14, 2026, 02:24 UTC

1 37444U 99025EHN 26257.10025169  .00002159  00000-0  39927-3 0  9993
2 37444  99.0812   3.6896 0237648 245.0366 112.5970 14.50066103691390

Traccia FENGYUN 1C DEB in tempo reale con AllMySat

Download on the App Store